Regional Weather Roundup
Issued by NWS

Home | Current Version | Previous Version | Graphics & Text | Print | Product List | Glossary On
Versions: 1 2 3 4 5 6 7 8 9 10 11 12 13 14 15 16 17 18 19 20 21 22 23 24 25 26 27 28 29 30 31 32 33 34 35 36 37 38 39 40 41 42 43 44 45 46 47 48 49 50
276
ASUS45 KSLC 120910
RWRUT

UTAH REGIONAL WEATHER ROUNDUP
NATIONAL WEATHER SERVICE SALT LAKE CITY UT
200 AM MST TUE DEC 12 2017

UTZ001>011-023>025-121000-

NORTHERN UTAH

CITY           SKY/WX    TMP DP  RH WIND       PRES   REMARKS
BRIGHAM CITY   CLOUDY    26  24  91 CALM      30.62S VSB 1/4
HILL AFB       FRZ DRZL  21  19  93 CALM      30.58S VSB 1/4
LOGAN          HAZE      18  13  80 CALM      30.61S VSB 1/2
OGDEN          CLOUDY    24  22  91 CALM      30.59S FOG
SALT LAKE CITY FOG       25  23  92 CALM      30.61R VSB 1/4
TOOELE VALLEY  FOG       21  21 100 W3        30.62S VSB 1/4
WENDOVER       PTCLDY    16  13  88 CALM      30.62R
HEBER CITY       N/A     14  10  85 CALM      30.56S
WEST JORDAN    CLOUDY   N/A N/A N/A CALM      30.60S VSB 1/4

$$

UTZ011>015-024>027-121000-

CENTRAL/NORTHEAST UTAH

CITY           SKY/WX    TMP DP  RH WIND       PRES   REMARKS
PROVO AIRPORT  PTCLDY    16  13  88 CALM      30.60R
MOAB/CANYONLAN MOCLDY    18   0  45 CALM      30.51R
DELTA          MOCLDY    12   9  85 E3        30.59R
PRICE          PTCLDY    26   4  38 N5        30.50R WCI  20
ROOSEVELT      CLOUDY    18   9  68 W3        30.59S
VERNAL         CLOUDY    17   7  64 W5        30.57R WCI  10

$$

UTZ013>016-019>022-027-121000-

SOUTHERN UTAH

CITY           SKY/WX    TMP DP  RH WIND       PRES   REMARKS
BRYCE CANYON   PTCLDY    17  -6  35 W10       30.56S WCI   5
CEDAR CITY     PTCLDY    17   6  62 CALM      30.52S
MILFORD        MOCLDY    15   7  70 CALM      30.56R
ST GEORGE      SUNNY     36  -3  19 E6        30.47R WCI  31
HANKSVILLE     MOCLDY    14  -4  44 CALM      30.56R
BLANDING         N/A     27   0  31 E6        30.56R WCI  20

$$

REGIONAL REPORTS     COLORADO/ARIZONA

CITY           SKY/WX    TMP DP  RH WIND       PRES   REMARKS
CRAIG, CO      CLOUDY    11   6  81 CALM      30.56S
GRAND JUNCTION CLOUDY    26   3  37 E3        30.53R
RIFLE, CO      CLOUDY    21   5  50 CALM      30.56R
MONTROSE, CO   CLOUDY    18   3  52 SE6       30.57R WCI  10
CORTEZ, CO     CLOUDY    13   0  56 E5        30.50R WCI   5
COLORADO CITY    N/A     16  -9  32 SE6       30.49S WCI   7
PAGE, AZ       PTCLDY    31  12  45 CALM      30.49S
GRAND CANYON   PTCLDY    16 -15  24 NE6       30.49S WCI   7
KINGMAN, AZ    PTCLDY    31  -3  23 E8        30.37R WCI  23
FLAGSTAFF, AZ  PTCLDY    19  -8  30 CALM      30.46S

$$

REGIONAL REPORTS    NEVADA/IDAHO/WYOMING

CITY           SKY/WX    TMP DP  RH WIND       PRES   REMARKS
LAS VEGAS, NV  CLEAR     42  -3  15 SW7       30.36S
ELY, NY        PTCLDY    13  -8  39 S12       30.56F WCI  -1
ELKO, NV       MOCLDY    15  11  83 CALM      30.58R
POCATELLO, ID  CLOUDY    16  12  84 CALM      30.58F
BURLEY, ID     FOG       20  17  88 CALM      30.58S VSB 1/4
FORT BRIDGER,    N/A     33  13  43 W7        30.55S WCI  26
EVANSTON, WY   CLOUDY    34   9  35 CALM      30.55R
ROCK SPRINGS,  CLOUDY    24  10  55 W10       30.51S WCI  14

$$




USA.gov is the U.S. government's official web portal to all federal, state and local government web resources and services.